DAL4187 KLAX-KMRY

Flight info

Callsign DAL4187
Flight time 0h 56m
Altitude 34000
Route SUMMR2 SCTRR WIGGL
Aircraft B738/M-SDE2E3FGHIRWXY/LB1

Departure

Time 2026-04-22 15:31
Airport Los Angeles International Airport (KLAX)

Arrival

Time 2026-04-22 16:27
Airport Monterey Regional Airport (KMRY)
Time Latitude Longitude Altitude Speed Heading
2026-04-22 15:15 33.94665 -118.40494 121 ft 0 kts 98°
2026-04-22 15:20 33.94665 -118.40497 121 ft 2 kts 98°
2026-04-22 15:20 33.94668 -118.40520 121 ft 2 kts 99°
2026-04-22 15:20 33.94670 -118.40532 121 ft 2 kts 98°
2026-04-22 15:20 33.94667 -118.40550 121 ft 2 kts 60°
2026-04-22 15:21 33.94658 -118.40563 121 ft 2 kts 31°
2026-04-22 15:21 33.94644 -118.40569 121 ft 2 kts
2026-04-22 15:21 33.94637 -118.40569 121 ft 1 kts 348°
2026-04-22 15:21 33.94633 -118.40568 121 ft 0 kts 352°
2026-04-22 15:24 33.94635 -118.40568 121 ft 1 kts 352°
2026-04-22 15:24 33.94649 -118.40570 121 ft 2 kts 352°
2026-04-22 15:24 33.94666 -118.40573 121 ft 2 kts 352°
2026-04-22 15:25 33.94686 -118.40576 121 ft 2 kts 352°
2026-04-22 15:25 33.94706 -118.40579 121 ft 3 kts 354°
2026-04-22 15:25 33.94716 -118.40581 121 ft 0 kts 354°
2026-04-22 15:25 33.94719 -118.40581 121 ft 0 kts 354°
2026-04-22 15:26 33.94729 -118.40582 121 ft 6 kts 354°
2026-04-22 15:26 33.94794 -118.40595 121 ft 9 kts 346°
2026-04-22 15:27 33.94852 -118.40597 121 ft 7 kts 33°
2026-04-22 15:27 33.94871 -118.40545 121 ft 8 kts 82°
2026-04-22 15:27 33.94883 -118.40443 120 ft 13 kts 82°
2026-04-22 15:27 33.94896 -118.40332 117 ft 13 kts 82°
2026-04-22 15:28 33.94908 -118.40223 117 ft 12 kts 83°
2026-04-22 15:28 33.94916 -118.40122 117 ft 12 kts 85°
2026-04-22 15:28 33.94924 -118.40017 114 ft 12 kts 83°
2026-04-22 15:28 33.94945 -118.39941 114 ft 0 kts 46°
2026-04-22 15:29 33.94946 -118.39941 114 ft 0 kts 46°
2026-04-22 15:30 33.95002 -118.39932 113 ft 5 kts 352°
2026-04-22 15:30 33.95034 -118.39988 114 ft 8 kts 265°
2026-04-22 15:30 33.95030 -118.40053 115 ft 8 kts 265°
2026-04-22 15:30 33.94999 -118.40339 118 ft 70 kts 263°
2026-04-22 15:31 33.94916 -118.41194 124 ft 133 kts 263°
2026-04-22 15:31 33.94772 -118.42501 156 ft 180 kts 262°
2026-04-22 15:31 33.94534 -118.44039 732 ft 189 kts 256°
2026-04-22 15:31 33.94203 -118.45476 1681 ft 179 kts 264°
2026-04-22 15:32 33.94206 -118.47039 2216 ft 193 kts 275°
2026-04-22 15:32 33.94278 -118.48681 2827 ft 205 kts 271°
2026-04-22 15:32 33.94254 -118.50455 3412 ft 220 kts 268°
2026-04-22 15:32 33.94137 -118.52338 4039 ft 236 kts 265°
2026-04-22 15:33 33.93968 -118.54340 4761 ft 248 kts 265°
2026-04-22 15:33 33.93787 -118.56441 5480 ft 259 kts 266°
2026-04-22 15:33 33.93611 -118.58571 6488 ft 257 kts 266°
2026-04-22 15:33 33.93441 -118.60693 7381 ft 260 kts 266°
2026-04-22 15:34 33.93272 -118.62857 8283 ft 262 kts 266°
2026-04-22 15:34 33.93104 -118.65022 9181 ft 263 kts 265°
2026-04-22 15:34 33.92934 -118.67200 10050 ft 265 kts 266°
2026-04-22 15:34 33.92759 -118.69449 10698 ft 276 kts 265°
2026-04-22 15:35 33.92639 -118.70985 11126 ft 282 kts 265°
2026-04-22 15:35 33.92392 -118.74136 11838 ft 292 kts 265°
2026-04-22 15:35 33.92202 -118.76585 11941 ft 291 kts 265°
2026-04-22 15:35 33.92012 -118.78977 11960 ft 286 kts 265°
2026-04-22 15:36 33.91824 -118.81348 11981 ft 284 kts 265°
2026-04-22 15:36 33.91696 -118.83777 12319 ft 297 kts 270°
2026-04-22 15:36 33.91736 -118.86166 13457 ft 286 kts 272°
2026-04-22 15:36 33.91818 -118.88544 14210 ft 289 kts 272°
2026-04-22 15:37 33.91903 -118.90963 14956 ft 292 kts 272°
2026-04-22 15:37 33.91980 -118.93408 15726 ft 294 kts 271°
2026-04-22 15:37 33.92051 -118.95832 16439 ft 295 kts 271°
2026-04-22 15:37 33.92125 -118.98334 17116 ft 299 kts 272°
2026-04-22 15:38 33.92368 -119.00817 17789 ft 303 kts 280°
2026-04-22 15:38 33.94114 -119.05482 19197 ft 311 kts 296°
2026-04-22 15:38 33.95270 -119.07698 19700 ft 318 kts 298°
2026-04-22 15:39 33.96462 -119.09943 20348 ft 319 kts 297°
2026-04-22 15:39 33.97647 -119.12202 20925 ft 321 kts 296°
2026-04-22 15:39 33.98818 -119.14468 21522 ft 323 kts 297°
2026-04-22 15:39 34.00051 -119.16739 22016 ft 329 kts 300°
2026-04-22 15:40 34.01560 -119.18878 22521 ft 338 kts 309°
2026-04-22 15:40 34.03350 -119.20752 23072 ft 344 kts 315°
2026-04-22 15:40 34.05282 -119.22482 23551 ft 350 kts 317°
2026-04-22 15:40 34.07290 -119.24184 23945 ft 356 kts 317°
2026-04-22 15:41 34.09343 -119.25912 24141 ft 360 kts 318°
2026-04-22 15:41 34.11376 -119.27631 24171 ft 359 kts 317°
2026-04-22 15:41 34.13424 -119.29367 24176 ft 354 kts 317°
2026-04-22 15:41 34.15400 -119.31047 24175 ft 348 kts 317°
2026-04-22 15:42 34.17394 -119.32755 24182 ft 351 kts 316°
2026-04-22 15:42 34.19376 -119.34470 24183 ft 355 kts 317°
2026-04-22 15:42 34.21381 -119.36207 24177 ft 353 kts 317°
2026-04-22 15:42 34.23360 -119.37915 24174 ft 350 kts 316°
2026-04-22 15:43 34.25345 -119.39629 24176 ft 349 kts 316°
2026-04-22 15:43 34.27329 -119.41348 24180 ft 352 kts 317°
2026-04-22 15:43 34.29317 -119.43066 24175 ft 351 kts 316°
2026-04-22 15:43 34.31297 -119.44775 24172 ft 349 kts 316°
2026-04-22 15:44 34.33289 -119.46497 24180 ft 350 kts 316°
2026-04-22 15:44 34.35263 -119.48206 24176 ft 351 kts 317°
2026-04-22 15:44 34.37239 -119.49916 24169 ft 350 kts 316°
2026-04-22 15:44 34.39223 -119.51637 24165 ft 351 kts 316°
2026-04-22 15:45 34.41200 -119.53357 24172 ft 353 kts 316°
2026-04-22 15:45 34.43170 -119.55130 24165 ft 350 kts 315°
2026-04-22 15:45 34.45092 -119.56932 24167 ft 347 kts 314°
2026-04-22 15:45 34.46985 -119.58739 24164 ft 347 kts 314°
2026-04-22 15:46 34.48876 -119.60551 24166 ft 348 kts 314°
2026-04-22 15:46 34.50777 -119.62364 24165 ft 346 kts 314°
2026-04-22 15:46 34.52654 -119.64143 24168 ft 347 kts 314°
2026-04-22 15:46 34.54577 -119.65967 24167 ft 348 kts 314°
2026-04-22 15:47 34.56479 -119.67766 24161 ft 347 kts 314°
2026-04-22 15:47 34.58368 -119.69551 24165 ft 347 kts 313°
2026-04-22 15:47 34.60283 -119.71358 24168 ft 348 kts 314°
2026-04-22 15:47 34.62187 -119.73160 24202 ft 352 kts 314°
2026-04-22 15:48 34.64124 -119.74999 24734 ft 354 kts 314°
2026-04-22 15:48 34.66051 -119.76817 25491 ft 350 kts 313°
2026-04-22 15:48 34.67968 -119.78629 26130 ft 348 kts 313°
2026-04-22 15:48 34.69865 -119.80428 26761 ft 346 kts 313°
2026-04-22 15:49 34.71730 -119.82207 27341 ft 344 kts 313°
2026-04-22 15:49 34.73603 -119.83993 27954 ft 342 kts 313°
2026-04-22 15:49 34.75500 -119.85799 28300 ft 347 kts 313°
2026-04-22 15:49 34.77430 -119.87644 28397 ft 358 kts 313°
2026-04-22 15:50 34.79411 -119.89542 28494 ft 369 kts 313°
2026-04-22 15:50 34.81417 -119.91448 29072 ft 366 kts 313°
2026-04-22 15:50 34.83404 -119.93326 29737 ft 361 kts 313°
2026-04-22 15:50 34.85410 -119.95222 30259 ft 360 kts 313°
2026-04-22 15:51 34.87353 -119.97066 30775 ft 358 kts 313°
2026-04-22 15:51 34.89328 -119.98950 31221 ft 357 kts 312°
2026-04-22 15:51 34.91265 -120.00801 31628 ft 358 kts 312°
2026-04-22 15:51 34.93224 -120.02683 32127 ft 355 kts 311°
2026-04-22 15:52 34.95164 -120.04534 32590 ft 353 kts 312°
2026-04-22 15:52 34.97098 -120.06381 32968 ft 353 kts 312°
2026-04-22 15:52 34.99004 -120.08205 33403 ft 351 kts 311°
2026-04-22 15:52 35.00909 -120.10027 33793 ft 350 kts 311°
2026-04-22 15:53 35.02818 -120.11856 34132 ft 349 kts 311°
2026-04-22 15:53 35.04743 -120.13707 34165 ft 356 kts 311°
2026-04-22 15:53 35.08416 -120.17249 34174 ft 369 kts 311°
2026-04-22 15:54 35.12496 -120.21195 34177 ft 382 kts 311°
2026-04-22 15:54 35.16744 -120.25286 34182 ft 395 kts 313°
2026-04-22 15:55 35.21171 -120.29430 34179 ft 408 kts 314°
2026-04-22 15:55 35.25751 -120.33579 34183 ft 408 kts 314°
2026-04-22 15:56 35.30299 -120.37686 34187 ft 405 kts 314°
2026-04-22 15:56 35.34821 -120.41813 34188 ft 406 kts 314°
2026-04-22 15:57 35.39337 -120.45963 34191 ft 405 kts 314°
2026-04-22 15:57 35.43791 -120.50056 34175 ft 402 kts 314°
2026-04-22 15:58 35.48277 -120.54200 34195 ft 405 kts 313°
2026-04-22 15:58 35.52780 -120.58349 34203 ft 401 kts 314°
2026-04-22 15:59 35.57309 -120.62324 34204 ft 404 kts 316°
2026-04-22 15:59 35.61946 -120.66266 34208 ft 403 kts 315°
2026-04-22 16:00 35.66535 -120.70183 34211 ft 401 kts 315°
2026-04-22 16:00 35.71129 -120.74153 34211 ft 401 kts 314°
2026-04-22 16:01 35.75669 -120.78078 34209 ft 400 kts 315°
2026-04-22 16:01 35.80253 -120.82034 34205 ft 402 kts 315°
2026-04-22 16:02 35.84813 -120.85981 34200 ft 400 kts 315°
2026-04-22 16:02 35.89328 -120.89887 34087 ft 392 kts 314°
2026-04-22 16:03 35.91554 -120.91815 33292 ft 397 kts 314°
2026-04-22 16:03 35.93834 -120.93817 31986 ft 410 kts 314°
2026-04-22 16:03 35.96146 -120.95851 31131 ft 411 kts 315°
2026-04-22 16:03 35.98492 -120.97900 30351 ft 412 kts 315°
2026-04-22 16:04 36.00841 -120.99947 29358 ft 417 kts 315°
2026-04-22 16:04 36.03181 -121.01994 28445 ft 420 kts 315°
2026-04-22 16:04 36.05560 -121.04059 28242 ft 405 kts 316°
2026-04-22 16:04 36.07820 -121.06010 27995 ft 393 kts 316°
2026-04-22 16:05 36.09300 -121.07289 27848 ft 385 kts 316°
2026-04-22 16:05 36.12181 -121.09791 27198 ft 379 kts 315°
2026-04-22 16:05 36.14322 -121.11671 26527 ft 378 kts 316°
2026-04-22 16:05 36.16470 -121.13557 26047 ft 373 kts 316°
2026-04-22 16:06 36.18562 -121.15395 25530 ft 370 kts 316°
2026-04-22 16:06 36.20651 -121.17233 24947 ft 367 kts 316°
2026-04-22 16:06 36.22720 -121.19055 24330 ft 367 kts 316°
2026-04-22 16:06 36.24781 -121.20871 23831 ft 363 kts 316°
2026-04-22 16:07 36.26824 -121.22665 23331 ft 360 kts 316°
2026-04-22 16:07 36.28872 -121.24466 22891 ft 354 kts 317°
2026-04-22 16:07 36.30862 -121.26217 22345 ft 353 kts 317°
2026-04-22 16:07 36.32848 -121.27968 21859 ft 349 kts 317°
2026-04-22 16:08 36.34808 -121.29694 21371 ft 346 kts 318°
2026-04-22 16:08 36.36756 -121.31409 20928 ft 341 kts 318°
2026-04-22 16:08 36.38688 -121.33115 20363 ft 340 kts 318°
2026-04-22 16:08 36.40586 -121.34794 19852 ft 338 kts 318°
2026-04-22 16:09 36.42494 -121.36492 19393 ft 333 kts 318°
2026-04-22 16:09 36.44310 -121.38210 18889 ft 329 kts 316°
2026-04-22 16:09 36.46093 -121.39997 18365 ft 326 kts 315°
2026-04-22 16:09 36.47819 -121.41758 17891 ft 322 kts 316°
2026-04-22 16:10 36.49544 -121.43507 17382 ft 320 kts 316°
2026-04-22 16:10 36.51275 -121.45242 16842 ft 319 kts 316°
2026-04-22 16:10 36.52430 -121.46394 16478 ft 319 kts 316°
2026-04-22 16:10 36.54734 -121.48692 15805 ft 316 kts 316°
2026-04-22 16:11 36.56442 -121.50401 15283 ft 314 kts 316°
2026-04-22 16:11 36.58126 -121.52085 14819 ft 311 kts 317°
2026-04-22 16:11 36.59776 -121.53726 14760 ft 295 kts 317°
2026-04-22 16:11 36.61328 -121.55265 14700 ft 280 kts 316°
2026-04-22 16:12 36.62830 -121.56760 14575 ft 268 kts 316°
2026-04-22 16:12 36.64277 -121.58213 14204 ft 266 kts 315°
2026-04-22 16:12 36.65562 -121.59820 13758 ft 262 kts 303°
2026-04-22 16:12 36.66271 -121.61857 13288 ft 259 kts 279°
2026-04-22 16:13 36.66259 -121.64084 12933 ft 257 kts 269°
2026-04-22 16:13 36.66447 -121.66273 12435 ft 258 kts 291°
2026-04-22 16:13 36.67224 -121.68284 12080 ft 257 kts 294°
2026-04-22 16:13 36.67986 -121.70302 11621 ft 259 kts 292°
2026-04-22 16:14 36.68708 -121.72342 11241 ft 258 kts 292°
2026-04-22 16:14 36.69418 -121.74374 10882 ft 256 kts 292°
2026-04-22 16:14 36.70118 -121.76389 10438 ft 257 kts 292°
2026-04-22 16:14 36.70824 -121.78438 10060 ft 257 kts 292°
2026-04-22 16:15 36.71534 -121.80502 9629 ft 257 kts 292°
2026-04-22 16:15 36.72229 -121.82521 9262 ft 257 kts 292°
2026-04-22 16:15 36.72941 -121.84586 8872 ft 256 kts 292°
2026-04-22 16:15 36.73641 -121.86610 8466 ft 256 kts 292°
2026-04-22 16:16 36.74339 -121.88616 8124 ft 254 kts 292°
2026-04-22 16:16 36.75045 -121.90649 7714 ft 255 kts 292°
2026-04-22 16:16 36.75742 -121.92664 7345 ft 254 kts 292°
2026-04-22 16:16 36.76444 -121.94684 6981 ft 253 kts 292°
2026-04-22 16:17 36.77142 -121.96686 6592 ft 253 kts 292°
2026-04-22 16:17 36.77851 -121.98712 6239 ft 252 kts 292°
2026-04-22 16:17 36.78551 -122.00703 5845 ft 252 kts 292°
2026-04-22 16:17 36.79248 -122.02691 5458 ft 252 kts 292°
2026-04-22 16:18 36.79956 -122.04706 5119 ft 250 kts 292°
2026-04-22 16:18 36.80659 -122.06686 4718 ft 252 kts 292°
2026-04-22 16:18 36.81305 -122.08691 4348 ft 250 kts 281°
2026-04-22 16:18 36.81171 -122.10766 4292 ft 232 kts 245°
2026-04-22 16:19 36.80235 -122.12257 4277 ft 213 kts 221°
2026-04-22 16:19 36.78997 -122.13256 3969 ft 211 kts 206°
2026-04-22 16:19 36.77602 -122.13779 3581 ft 213 kts 189°
2026-04-22 16:19 36.76125 -122.13814 3242 ft 212 kts 175°
2026-04-22 16:20 36.74733 -122.13246 3028 ft 206 kts 150°
2026-04-22 16:20 36.73689 -122.12141 2919 ft 194 kts 134°
2026-04-22 16:20 36.72847 -122.10881 2768 ft 184 kts 131°
2026-04-22 16:20 36.72055 -122.09642 2461 ft 184 kts 131°
2026-04-22 16:21 36.71256 -122.08415 2171 ft 181 kts 131°
2026-04-22 16:21 36.70458 -122.07204 1930 ft 176 kts 131°
2026-04-22 16:21 36.69709 -122.06064 1745 ft 169 kts 131°
2026-04-22 16:21 36.68980 -122.04951 1663 ft 164 kts 131°
2026-04-22 16:22 36.67331 -122.02937 1672 ft 167 kts 163°
2026-04-22 16:22 36.66202 -122.03002 1682 ft 167 kts 206°
2026-04-22 16:22 36.65247 -122.03833 1683 ft 167 kts 210°
2026-04-22 16:23 36.63176 -122.03373 1685 ft 171 kts 126°
2026-04-22 16:23 36.62875 -122.01969 1680 ft 168 kts 89°
2026-04-22 16:23 36.62964 -122.00614 1680 ft 151 kts 89°
2026-04-22 16:24 36.62997 -121.99339 1677 ft 147 kts 92°
2026-04-22 16:24 36.62655 -121.96838 1687 ft 147 kts 109°
2026-04-22 16:24 36.62344 -121.95624 1687 ft 146 kts 111°
2026-04-22 16:25 36.62000 -121.94454 1684 ft 145 kts 113°
2026-04-22 16:25 36.61260 -121.92107 1288 ft 138 kts 114°
2026-04-22 16:25 36.60907 -121.91029 1099 ft 130 kts 114°
2026-04-22 16:26 36.60561 -121.89987 963 ft 132 kts 114°
2026-04-22 16:26 36.60207 -121.88925 763 ft 131 kts 114°
2026-04-22 16:26 36.59861 -121.87884 595 ft 130 kts 114°
2026-04-22 16:26 36.59512 -121.86842 414 ft 129 kts 114°
2026-04-22 16:27 36.59173 -121.85826 245 ft 128 kts 113°
2026-04-22 16:27 36.58841 -121.84850 183 ft 95 kts 114°
2026-04-22 16:27 36.58689 -121.84400 207 ft 32 kts 112°
2026-04-22 16:27 36.58616 -121.84184 224 ft 21 kts 114°
2026-04-22 16:28 36.58557 -121.84119 232 ft 6 kts 194°
2026-04-22 16:28 36.58546 -121.84122 233 ft 0 kts 194°
2026-04-22 16:28 36.58531 -121.84130 235 ft 5 kts 214°
2026-04-22 16:28 36.58524 -121.84197 233 ft 10 kts 308°
2026-04-22 16:29 36.58553 -121.84293 224 ft 15 kts 289°
2026-04-22 16:29 36.58602 -121.84438 212 ft 21 kts 292°
2026-04-22 16:29 36.58672 -121.84618 198 ft 20 kts 307°
2026-04-22 16:29 36.58707 -121.84750 192 ft 10 kts 247°
2026-04-22 16:30 36.58693 -121.84769 193 ft 3 kts 242°
2026-04-22 16:30 36.58679 -121.84792 193 ft 2 kts 231°
2026-04-22 16:30 36.58674 -121.84800 193 ft 0 kts 233°